This demonstration page uses our WeatherBlox Daily Observations layout. Learn more.

Left ArrowRight Arrow

Hourly Observations for September 12, 2018

Temp ( °F °C ) Dew Point ( °F °C ) Humidity (%) Winds ( mph kmh ) Pressure ( in mb ) Visibility ( mi km ) Precip ( " mm )
12:53 am 00:53 Cloudy 64 17.8 62 16.7 93 93 Calm 30.16 1021 10 16 0.00 0.00
1:53 am 01:53 Cloudy 65 18.3 60 15.6 84 84 Calm 30.16 1021 10 16 0.00 0.00
2:53 am 02:53 Cloudy 64 17.8 61 16.1 90 90 Calm 30.16 1021 10 16 0.00 0.00
3:53 am 03:53 Cloudy 63 17.2 61 16.1 93 93 Calm 30.16 1021 10 16 0.00 0.00
4:53 am 04:53 Cloudy 64 17.8 61 16.1 90 90 Calm 30.15 1021 10 16 0.00 0.00
5:53 am 05:53 Cloudy 63 17.2 61 16.1 93 93 Calm 30.16 1021 10 16 0.00 0.00
6:53 am 06:53 Cloudy 63 17.2 61 16.1 93 93 Calm 30.18 1022 10 16 0.00 0.00
7:53 am 07:53 Cloudy 64 17.8 62 16.7 93 93 Calm 30.20 1023 10 16 0.00 0.00
8:53 am 08:53 Cloudy 66 18.9 61 16.1 84 84 NE 3 6 30.21 1023 10 16 0.00 0.00
9:53 am 09:53 Cloudy 68 20 62 16.7 81 81 Calm 30.21 1023 10 16 0.00 0.00
10:53 am 10:53 Cloudy 70 21.1 62 16.7 76 76 ENE 5 7 30.21 1023 10 16 0.00 0.00
11:53 am 11:53 Cloudy 74 23.3 59 15 60 60 ENE 7 11 30.20 1023 10 16 0.00 0.00
12:53 pm 12:53 Cloudy 73 22.8 58 14.4 59 59 E 6 9 30.19 1022 10 16 0.00 0.00
1:53 pm 13:53 Cloudy 74 23.3 58 14.4 57 57 Calm 30.19 1023 10 16 0.00 0.00
2:53 pm 14:53 Cloudy 74 23.3 59 15 60 60 N 5 7 30.18 1022 10 16 0.00 0.00
3:53 pm 15:53 Mostly Cloudy 75 23.9 60 15.6 60 60 NNE 6 9 30.16 1021 10 16 0.00 0.00
4:53 pm 16:53 Partly Cloudy 76 24.4 61 16.1 60 60 NNW 8 13 30.16 1021 10 16 0.00 0.00
5:53 pm 17:53 Mostly Sunny 75 23.9 61 16.1 62 62 N 3 6 30.15 1021 10 16 0.00 0.00
6:53 pm 18:53 Mostly Cloudy 74 23.3 62 16.7 67 67 N 3 6 30.15 1021 10 16 0.00 0.00
7:53 pm 19:53 Clear 70 21.1 63 17.2 79 79 N 5 7 30.15 1021 10 16 0.00 0.00
8:53 pm 20:53 Clear 65 18.3 63 17.2 93 93 Calm 30.16 1021 10 16 0.00 0.00
9:53 pm 21:53 Clear 67 19.4 61 16.1 81 81 N 6 9 30.16 1021 10 16 0.00 0.00
10:53 pm 22:53 Partly Cloudy 63 17.2 61 16.1 93 93 Calm 30.16 1022 10 16 0.00 0.00
11:53 pm 23:53 Partly Cloudy 62 16.7 60 15.6 93 93 Calm 30.17 1022 10 16 0.00 0.00

Powered by AerisWeather